Location: Chippewa Lake
(41.0698°N, 81.9010°W)
Time: 01:00:55
(UTC+00:00)

Meteor 2-6 Rocket - Pass Details

Date: 09 May 2021
Orbit: 807 x 913 km, 81.3° (Epoch: 24 June)

Event Time Altitude Azimuth Distance (km) Brightness Sun altitude
Exits shadow 03:30:09 46° 224° (SW) 1,085 4.6 -25.8°
Maximum altitude 03:31:36 63° 282° (WNW) 907 4.4 -26.0°
Drops below altitude 10° 03:37:02 10° 3° (N) 2,434 7.3 -26.5°
Sets 03:39:30 0° 7° (N) 3,385 8.2 -26.7°
